Tracking 30102 objects as of 12-Dec-2024
HD Live streaming from Space Station
objects crossing your sky now

EUTE KONNECT VHTS

Track EUTE KONNECT VHTS now!
EUTE KONNECT VHTS is classified as:


NORAD ID: 53765
Int'l Code: 2022-110A
Perigee: 35,781.5 km
Apogee: 35,807.0 km
Inclination: 0.1 °
Period: 1,436.1 minutes
Semi major axis: 42165 km
RCS: Unknown
Launch date: September 7, 2022
Source: European Telecommunications Satellite Organization (EUTE)
Launch site: FRENCH GUIANA (FRGUI)
Your satellite tracking list
Your tracking list is empty




NASA's NSSDC Master Catalog

Two Line Element Set (TLE):
1 53765U 22110A   24347.52319465  .00000032  00000-0  00000+0 0  9991
2 53765   0.0551 100.2448 0003027 136.9951  35.5514  1.00270038  8253
Source of the keplerian elements: AFSPC